Weather observations for the past three days for
Buffalo
Metric (Imperial)
Date Time (mdt) Wind (kph) Vis. (km) Weather Sky Cond. Temperature (ºC) Relative Humidity Wind Chill (°C) Heat Index (°C) Pressure Precipitation (cm)
Air Dwpt 6 hour altimeter (cm) sea level (mb) 1 hr 3 hr 6 hr
Max. Min.
10 08:56 Calm 0.00 NULL NULL 9.4 4.4 71% 76.63 1022.0 0.08
10 07:56 S 6 0.00 NULL NULL 7.2 5 86% 76.61 1021.8 0.08
10 06:56 S 6 0.00 NULL NULL 7.8 5 83% 76.61 1021.6
10 05:56 Calm 0.00 NULL NULL 7.8 3.9 11.1 6.7 77% 76.58 1021.0
10 04:56 N 20 0.00 NULL NULL 7.8 4.4 79% 5 76.53 1020.4
10 03:56 N 9 0.00 NULL NULL 8.3 5 80% 7 76.5 1020.0
10 02:56 NW 13 0.00 NULL NULL 6.7 4.4 85% 4 76.45 1019.6
10 01:56 NW 9 0.00 NULL NULL 7.2 4.4 83% 6 76.45 1019.4
10 00:56 SW 11 0.00 NULL NULL 7.8 4.4 79% 6 76.45 1019.4
09 23:56 W 7 0.00 NULL NULL 11.1 3.3 16.7 10 59% 76.43 1019.0
09 22:56 W 7 0.00 NULL NULL 10.6 4.4 66% 76.43 1019.3
09 21:56 S 6 0.00 NULL NULL 11.7 2.8 55% 76.4 1018.8
09 20:56 NE 7 0.00 NULL NULL 12.8 1.1 45% 76.35 1018.0
09 19:56 N 17 0.00 NULL NULL 12.8 2.2 49% 76.3 1017.5
09 18:56 NW 24 0.00 NULL NULL 15.6 1.7 39% 76.25 1016.8
09 17:56 N 13 0.00 NULL NULL 16.1 1.7 16.1 13.3 38% 76.25 1017.1
09 16:56 NW 20 0.00 NULL NULL 16.1 1.7 38% 76.23 1016.7
09 15:56 N 13 0.00 NULL NULL 15.6 1.1 38% 76.23 1016.7
09 14:56 N 15 G 37 0.00 NULL NULL 15.6 0.6 36% 76.25 1016.6
09 13:56 N 13 G 28 0.00 NULL NULL 14.4 0 38% 76.23 1016.6
09 12:56 N 31 G 41 0.00 NULL NULL 14.4 0.6 39% 76.23 1016.4
09 11:56 N 22 0.00 NULL NULL 13.3 0.6 13.9 5 42% 76.25 1016.5
09 10:56 NW 15 0.00 NULL NULL 11.7 2.2 52% 76.23 1016.5
09 09:56 N 19 0.00 NULL NULL 11.1 0.6 49% 76.2 1016.0
09 08:56 NE 11 0.00 NULL NULL 10 3.3 63% 9 76.15 1015.2
09 07:56 NE 11 0.00 NULL NULL 8.3 5 80% 7 76.1 1014.4
09 06:56 NW 6 0.00 NULL NULL 6.7 4.4 85% 76.02 1013.4
09 05:56 N 11 0.00 NULL NULL 5 2.8 10 4.4 86% 3 75.95 1012.3 0.05
09 04:56 N 15 0.00 NULL NULL 5 2.8 86% 2 75.84 1011.0
09 03:56 Calm 0.00 NULL NULL 5 3.3 89% 75.77 1010.0
09 02:56 NE 11 0.00 NULL NULL 6.1 4.4 89% 4 75.74 1009.2 0.03 0.05
09 01:56 NE 19 0.00 NULL NULL 7.8 5.6 86% 5 75.69 1008.8
09 00:56 E 22 0.00 NULL NULL 7.8 5 83% 5 75.62 1007.6 0.03
08 23:56 NE 33 0.00 Breezy NULL 10 5.6 20.6 10 74% 7 75.64 1008.0
08 22:56 W 9 0.00 NULL NULL 10.6 1.7 54% 75.51 1006.2
08 21:56 W 9 0.00 NULL NULL 11.1 2.2 55% 75.54 1006.7
08 20:56 SW 9 0.00 NULL NULL 12.8 1.7 47% 75.51 1006.4
08 19:56 W 13 0.00 NULL NULL 15.6 0.6 36% 75.54 1006.5
08 18:56 NW 22 0.00 NULL NULL 18.9 -0.6 27% 75.57 1006.7
08 17:56 NW 30 0.00 NULL NULL 20 -1.7 21.1 17.2 23% 75.62 1007.6
08 16:56 NW 22 0.00 NULL NULL 20.6 -1.7 22% 75.64 1008.1
08 15:56 NW 28 0.00 NULL NULL 20.6 -1.7 22% 75.69 1008.7
08 14:56 NW 30 G 43 0.00 NULL NULL 20 -2.2 22% 75.74 1009.5
08 13:56 NW 20 G 41 0.00 NULL NULL 18.9 -1.7 25% 75.82 1010.7
08 12:56 NW 22 G 39 0.00 NULL NULL 18.3 -2.2 25% 75.84 1011.0
08 11:56 NW 22 0.00 NULL NULL 17.2 -2.2 17.8 5 27% 75.9 1011.7
08 10:56 N 24 G 39 0.00 NULL NULL 16.7 -1.1 30% 75.9 1011.9
08 09:56 N 24 G 35 0.00 NULL NULL 15.6 -0.6 33% 75.9 1011.5
08 08:56 NW 31 G 46 0.00 NULL NULL 13.9 2.2 45% 75.9 1011.6
08 07:56 NW 37 G 52 0.00 Breezy NULL 12.8 3.3 53% 75.84 1010.7
08 06:56 W 31 0.00 NULL NULL 9.4 4.4 71% 6 75.77 1009.8
08 05:56 W 22 0.00 NULL NULL 5 2.2 8.3 3.9 82% 1 75.74 1009.7
08 04:56 W 17 0.00 NULL NULL 4.4 0.6 77% 1 75.72 1009.6
08 03:56 W 19 0.00 NULL NULL 5 -0.6 67% 2 75.72 1009.5
08 02:56 W 17 0.00 NULL NULL 6.1 -0.6 63% 3 75.74 1009.6
08 01:56 W 13 0.00 NULL NULL 5.6 -0.6 65% 3 75.74 1009.9
08 00:56 NW 13 0.00 NULL NULL 6.7 -2.2 53% 4 75.77 1010.0
07 23:56 NW 19 0.00 NULL NULL 7.2 -1.7 18.3 7.2 54% 4 75.77 1010.5
07 22:56 NW 13 0.00 NULL NULL 7.8 -0.6 56% 6 75.77 1010.3
07 21:56 NW 22 0.00 NULL NULL 10.6 -0.6 46% 75.74 1009.9
07 20:56 NW 13 0.00 NULL NULL 10.6 0 48% 75.72 1009.8
07 19:56 NW 15 0.00 NULL NULL 13.3 -0.6 39% 75.67 1009.5
07 18:56 NW 26 0.00 NULL NULL 16.7 -1.1 30% 75.64 1008.9
07 17:56 NW 22 0.00 NULL NULL 18.3 -2.2 18.9 13.9 25% 75.62 1008.7
07 16:56 NW 31 G 39 0.00 NULL NULL 18.3 -1.1 27% 75.62 1008.6
07 15:56 W 19 G 35 0.00 NULL NULL 18.3 -0.6 28% 75.64 1008.8
07 14:56 N 17 0.00 NULL NULL 17.2 -2.8 26% 75.67 1009.1
07 13:56 Vrbl 11 0.00 NULL NULL 17.2 -2.8 26% 75.74 1009.9
07 12:56 Calm 0.00 NULL NULL 15.6 -5.6 23% 75.77 1010.1
07 11:56 Vrbl 7 0.00 NULL NULL 13.9 -6.7 15 -0.6 24% 75.77 1010.6
07 10:56 Vrbl 6 0.00 NULL NULL 13.3 -7.2 24% 75.79 1010.9
07 09:56 E 9 0.00 NULL NULL 12.8 -4.4 30% 75.82 1011.3
Date Time (mdt) Wind (kph) Vis. (km) Weather Sky Cond. Air Dwpt Max. Min. Relative Humidity Wind Chill (°C) Heat Index (°C) altimeter (cm) sea level (mb) 1 hr 3 hr 6 hr
6 hour
Temperature (ºC) Pressure Precipitation (cm)